テンペル-スイフト-リニア彗星

11P/Tempel-Swift-LINEAR (2020)

English version
Home page
Updated on January 23, 2021

---------------------------------------------------------------------

・ プロフィール

・ 写真集

・ 軌道要素

Epoch 2020 Nov. 7.0 TT = JDT 2459160.5
T 2020 Nov. 26.26385 TT                                 MPC
q   1.3887544            (2000.0)            P               Q
n   0.16570285     Peri.  167.94706     +0.67810866     -0.70333318
a   3.2828376      Node   238.91608     +0.65193767     +0.70960720
e   0.5769652      Incl.   14.42110     +0.33933158     +0.04219075
P   5.95
From 47 observations 2001 Aug. 1-2014 Sept. 3, mean residual 0".7.

・ 星図

・ 光度変化

        m1 = 17.0 + 5 logΔ +  10.0 log r  [   ,-44]  (              〜2020年10月13日)
        m1 = -6.5 + 5 logΔ + 150   log r  [-44,  0]  (2020年10月13日〜2020年11月26日)
        m1 = 10.0 + 5 logΔ +  35   log r  [  0,   ]  (2020年11月26日〜              )

---------------------------------------------------------------------

軌道要素はM.P.E.C. 2014-R70に掲載されたものです。
星図はステラナビゲータ Ver.10 (アストロアーツ) で作成したものです。
光度グラフはComet for Windowsで作成したものです。

---------------------------------------------------------------------

Copyright(C) Seiichi Yoshida (comet@aerith.net). All rights reserved.